Regional Weather Roundup
Issued by NWS

Home | Current Version | Previous Version | Text Only | Print | Product List | Glossary Off
Versions: 1 2 3 4 5 6 7 8 9 10 11 12 13 14 15 16 17 18 19 20 21 22 23 24 25 26 27 28 29 30 31 32 33 34 35 36 37 38 39 40 41 42 43 44 45 46 47 48 49 50

616
ASUS43 KOAX 100810
RWRNE

WEATHER ROUNDUP FOR NEBRASKA
NATIONAL WEATHER SERVICE OMAHA NE
200 AM CST SAT DEC 10 2016

NOTES: SATELLITE DATA IS BEING USED TO AUGMENT CLOUD COVER ABOVE
       12000 FEET.
       "FAIR" INDICATES FEW OR NO CLOUDS BELOW 12,000 FEET WITH NO
       SIGNIFICANT WEATHER AND/OR OBSTRUCTIONS TO VISIBILITY.

  * THESE STATIONS DO NOT REPORT WEATHER SUCH AS RAIN...SNOW OR FOG.

NEZ001>004-019>022-054>056-100900-
NEBRASKA PANHANDLE

CITY           SKY/WX    TMP DP  RH WIND       PRES   REMARKS
SCOTTSBLUFF    CLOUDY    15   8  73 E15       30.06F WCI   0
ALLIANCE       CLOUDY    11   6  81 SE9       30.10F WCI  -2
CHADRON        CLOUDY     8   2  76 NE9       30.15F WCI  -5
KIMBALL        CLOUDY    20  16  84 S5        30.05F WCI  14
SIDNEY         CLOUDY    19  15  84 SE7       30.08F WCI  10
$$

NEZ057>060-069>072-079>082-100900-
SOUTHWEST NEBRASKA

CITY           SKY/WX    TMP DP  RH WIND       PRES   REMARKS
NORTH PLATTE   CLOUDY    17  11  77 E9        30.24F WCI   6
IMPERIAL       CLOUDY    18  13  80 SE6       30.17F WCI  10
LEXINGTON      CLOUDY    18  12  79 SE8       30.28F WCI   7
MCCOOK         CLOUDY    17  12  80 E6        30.23F WCI   9
OGALLALA       CLOUDY    18  13  80 NE7       30.18S WCI   9
$$

NEZ005>010-023>029-035>040-094-100900-
NORTH CENTRAL NEBRASKA

CITY           SKY/WX    TMP DP  RH WIND       PRES   REMARKS
VALENTINE      LGT SNOW   6   2  83 NE7       30.31F FOG     WCI  -6
AINSWORTH      LGT SNOW   9   7  93 E8        30.31F VSB 1   WCI  -3
BROKEN BOW     CLOUDY    20  14  77 SE9       30.29S WCI   9
O`NEILL        CLOUDY    11   9  89 NE7       30.40S WCI   0
ORD            CLOUDY    16  10  77 E3        30.34F
THEDFORD       LGT SNOW  11   8  87 E6        30.27F WCI   1
$$

NEZ041-046>049-061>064-073>077-083>087-100900-
SOUTH CENTRAL NEBRASKA

CITY           SKY/WX    TMP DP  RH WIND       PRES   REMARKS
GRAND ISLAND   CLOUDY    19  15  84 SE9       30.36F WCI   8
AURORA         CLOUDY    18  13  82 SE5       30.38F WCI  11
HASTINGS       CLOUDY    18  13  80 SE7       30.36F WCI   9
HEBRON         CLOUDY    15  12  88 CALM      30.42F
HOLDREGE       CLOUDY    19  13  80 SE8       30.30S WCI   8
KEARNEY *      CLOUDY    18  12  79 SE6       30.34S WCI   9
YORK           CLOUDY    18  14  86 S5        30.40F WCI  11
$$

NEZ011>018-030>034-042>045-100900-
NORTHEAST NEBRASKA

CITY           SKY/WX    TMP DP  RH WIND       PRES   REMARKS
NORFOLK        CLOUDY    12   9  87 E3        30.41F
ALBION         CLOUDY    15  11  85 CALM      30.38F
BLAIR          CLOUDY    22  15  71 S6        30.44F WCI  15
FREMONT        CLOUDY    22  14  72 CALM      30.46S
TEKAMAH        CLOUDY    21  14  74 N5        30.48S WCI  15
WAYNE          CLOUDY    13   9  87 CALM      30.44S
$$

NEZ050>053-065>068-078-088>093-100900-
SOUTHEAST NEBRASKA

CITY           SKY/WX    TMP DP  RH WIND       PRES   REMARKS
LINCOLN        PTCLDY    22  15  75 SE5       30.45F WCI  16
OMAHA EPPLEY   CLOUDY    23  12  62 SE6       30.48F WCI  16
BEATRICE       CLOUDY    22  15  75 CALM      30.44S
FALLS CITY     CLOUDY    25  16  68 SE5       30.48S WCI  19
NEBRASKA CITY  CLOUDY    24  12  60 SE3       30.46F
PLATTSMOUTH    CLOUDY    23  13  66 E5        30.45F WCI  16
$$

NEZ044-045-051>053-067-100900-
OMAHA AREA

CITY           SKY/WX    TMP DP  RH WIND       PRES   REMARKS
OMAHA EPPLEY   CLOUDY    23  12  62 SE6       30.48F WCI  16
BLAIR          CLOUDY    22  15  71 S6        30.44F WCI  15
FREMONT        CLOUDY    22  14  72 CALM      30.46S
MILLARD        CLOUDY    25  16  69 CALM      30.46F
OFFUTT AFB     CLOUDY    23  15  72 E5        30.47F WCI  16
PLATTSMOUTH    CLOUDY    23  13  66 E5        30.45F WCI  16
WAHOO          CLOUDY    22  15  75 SE3       30.45F
$$




USA.gov is the U.S. government's official web portal to all federal, state and local government web resources and services.